Weather History for Wainwright, AK

Change the Weather History Date:

Saturday, March 9, 2013

  Actual Average (PABR) Record (PABR)
Temperature  
Mean Temperature 10 °F -14 °F  
Max Temperature 19 °F -8 °F 31 °F (1965)
Min Temperature 0 °F -21 °F -42 °F (1959)
Degree Days  
Heating Degree Days 56 79  
Month to date heating degree days 711  
Since 1 July heating degree days 13559  
Cooling Degree Days 0    
Month to date cooling degree days  
Year to date cooling degree days  
Moisture  
Dew Point -1 °F    
Average Humidity 80    
Maximum Humidity 86    
Minimum Humidity 72    
Precipitation  
Precipitation 0.00 in 0.01 in 0.20 in (1925)
Month to date precipitation 0.03  
Year to date precipitation 0.30  
Snow  
Snow 0.00 in 0.10 in 2.00 in (1925)
Month to date snowfall 0.7  
Since 1 July snowfall 29.7  
Snow Depth -    
Sea Level Pressure  
Sea Level Pressure 29.65 in    
Wind  
Wind Speed 20 mph (East)    
Max Wind Speed 25 mph    
Max Gust Speed 31 mph    
Visibility 2 miles    
Events Snow    
T = Trace of Precipitation, MM = Missing Value Source: NWS Daily Summary

Daily Weather History Graph

Daily Weather History Graph

Search for Another Location

Airport:

Trip Planner

Search our weather history database for the weather conditions in past years. The results will help you decide how hot, cold, wet, or windy it might be!

Date:

Astronomy

Mar. 09, 2013 Rise Set
Actual Time 8:28 AM AKST 7:13 PM AKST
Civil Twilight 7:26 AM AKST 8:16 PM AKST
Nautical Twilight 6:11 AM AKST 9:31 PM AKST
Astronomical Twilight 4:45 AM AKST 10:59 PM AKST
Moon 7:53 AM AKST (3/9) 4:48 PM AKST (3/9)
Length of Visible Light 12h 50m
Length of Day
10h 45m
Waning Crescent, 5% of the Moon is Illuminated
Mar 9
Waning Crescent
Mar 11
New
Mar 19
First Quarter
Mar 27
Full
Apr 2
Last Quarter

Hourly Weather History & Observations

Time (AKST) Temp. Windchill Dew Point Humidity Pressure Visibility Wind Dir Wind Speed Gust Speed Precip Events Conditions
12:53 AM 1.9 °F -18.1 °F -2.0 °F 83% 29.55 in 1.5 mi East 17.3 mph - N/A Snow Blowing Snow
1:13 AM 1.4 °F -22.3 °F -2.2 °F 85% 29.54 in 0.8 mi East 25.3 mph 31.1 mph N/A Snow Blowing Snow
1:23 AM 1.4 °F -21.9 °F -2.2 °F 85% 29.54 in 1.2 mi ENE 24.2 mph - N/A Snow Blowing Snow
1:30 AM 1.4 °F -21.0 °F -2.2 °F 85% 29.54 in 1.5 mi ENE 21.9 mph - N/A Snow Blowing Snow
1:53 AM 1.9 °F -18.7 °F -2.9 °F 80% 29.55 in 1.8 mi ENE 18.4 mph - N/A Snow Blowing Snow
2:31 AM 1.4 °F -21.4 °F -2.2 °F 85% 29.54 in 1.2 mi East 23.0 mph - N/A Snow Blowing Snow
2:39 AM 1.4 °F -21.9 °F -2.2 °F 85% 29.54 in 1.2 mi East 24.2 mph - N/A Snow Blowing Snow
3:53 AM 1.9 °F -20.7 °F -4.0 °F 76% 29.54 in 1.5 mi East 23.0 mph - N/A Snow Blowing Snow
4:19 AM 1.4 °F -19.9 °F -4.0 °F 78% 29.54 in 2.0 mi ENE 19.6 mph - N/A Snow Blowing Snow
4:36 AM 1.4 °F -21.4 °F -4.0 °F 78% 29.54 in 1.5 mi ENE 23.0 mph - N/A Snow Blowing Snow
4:53 AM 1.0 °F -21.4 °F -4.0 °F 79% 29.55 in 1.8 mi ENE 21.9 mph - N/A Snow Blowing Snow
5:00 AM 1.4 °F -21.4 °F -4.0 °F 78% 29.54 in 2.0 mi ENE 23.0 mph - N/A Snow Blowing Snow
5:31 AM 1.4 °F -21.0 °F -4.0 °F 78% 29.55 in 2.0 mi East 21.9 mph - N/A Snow Blowing Snow
5:53 AM 1.0 °F -20.4 °F -4.0 °F 79% 29.56 in 2.5 mi East 19.6 mph - N/A   Haze
6:44 AM -0.4 °F -24.3 °F -5.8 °F 78% 29.56 in 1.8 mi East 24.2 mph - N/A Snow Blowing Snow
6:53 AM -0.0 °F -24.3 °F -5.1 °F 79% 29.56 in 1.8 mi East 25.3 mph - N/A Snow Blowing Snow
7:14 AM -0.4 °F -24.7 °F -5.8 °F 78% 29.56 in 2.0 mi East 25.3 mph - N/A Snow Blowing Snow
7:53 AM -0.0 °F -24.3 °F -6.0 °F 76% 29.57 in 2.5 mi East 25.3 mph - N/A   Haze
8:20 AM -0.4 °F -23.3 °F -5.8 °F 78% 29.57 in 3.0 mi East 21.9 mph - N/A   Haze
8:45 AM -0.4 °F -22.8 °F -5.8 °F 78% 29.57 in 1.2 mi East 20.7 mph 27.6 mph N/A   Haze
8:53 AM -0.0 °F -22.4 °F -5.1 °F 79% 29.58 in 1.8 mi East 20.7 mph - N/A   Haze
9:01 AM 1.4 °F -18.8 °F -5.8 °F 72% 29.58 in 2.5 mi East 17.3 mph - N/A   Haze
9:26 AM 1.4 °F -19.4 °F -4.0 °F 78% 29.59 in 3.0 mi East 18.4 mph - N/A   Haze
9:53 AM 1.0 °F -19.9 °F -4.0 °F 79% 29.60 in 4.0 mi East 18.4 mph - N/A   Haze
10:03 AM 1.4 °F -21.4 °F -4.0 °F 78% 29.59 in 1.8 mi East 23.0 mph 28.8 mph N/A Snow Blowing Snow
10:53 AM 1.9 °F -21.6 °F -2.9 °F 80% 29.59 in 1.5 mi East 25.3 mph - N/A Snow Blowing Snow
11:49 AM 3.2 °F -18.1 °F -2.2 °F 78% 29.60 in 3.0 mi East 20.7 mph - N/A   Haze
11:53 AM 3.0 °F -18.3 °F -2.0 °F 80% 29.60 in 3.0 mi East 20.7 mph - N/A   Haze
12:53 PM 5.0 °F -15.7 °F -0.0 °F 80% 29.62 in 4.0 mi East 20.7 mph - N/A   Haze
1:53 PM 5.0 °F -15.2 °F -0.0 °F 80% 29.63 in 4.0 mi East 19.6 mph - N/A   Haze
2:17 PM 6.8 °F -13.8 °F 1.4 °F 79% 29.63 in 2.5 mi East 21.9 mph - N/A   Haze
2:53 PM 6.1 °F -15.2 °F 1.0 °F 80% 29.64 in 2.0 mi East 23.0 mph - N/A   Haze
3:36 PM 6.8 °F -14.3 °F 1.4 °F 79% 29.65 in 1.8 mi East 23.0 mph - N/A   Haze
3:53 PM 6.1 °F -15.7 °F 1.0 °F 80% 29.66 in 1.8 mi East 24.2 mph - N/A   Haze
4:19 PM 6.8 °F -12.9 °F 1.4 °F 79% 29.67 in 2.5 mi East 19.6 mph - N/A   Haze
4:33 PM 6.8 °F -11.8 °F 1.4 °F 79% 29.69 in 3.0 mi ENE 17.3 mph - N/A   Haze
4:53 PM 5.0 °F -14.7 °F -0.0 °F 80% 29.70 in 5.0 mi East 18.4 mph - N/A   Haze
5:53 PM 5.0 °F -16.2 °F -0.0 °F 80% 29.71 in 5.0 mi East 21.9 mph - N/A   Haze
6:24 PM 5.0 °F -16.2 °F -0.4 °F 78% 29.72 in 2.5 mi East 21.9 mph - N/A   Haze
6:34 PM 5.0 °F -17.1 °F -0.4 °F 78% 29.72 in 3.0 mi East 24.2 mph - N/A Snow Blowing Snow
6:53 PM 5.0 °F -15.7 °F 1.0 °F 84% 29.73 in 3.0 mi East 20.7 mph - N/A Snow Blowing Snow
7:20 PM 6.8 °F -12.9 °F 1.4 °F 79% 29.75 in 2.0 mi East 19.6 mph - 0.00 in Snow Light Snow
7:53 PM 6.1 °F -13.3 °F 1.0 °F 80% 29.78 in 1.0 mi ESE 18.4 mph - 0.00 in Snow Light Snow
8:33 PM 6.8 °F -9.3 °F 1.4 °F 79% 29.79 in 1.2 mi ESE 12.7 mph - 0.00 in Snow Light Snow
8:53 PM 7.0 °F -10.4 °F 1.9 °F 80% 29.81 in 1.0 mi ESE 15.0 mph - 0.00 in Snow Light Snow
9:16 PM 6.8 °F -10.0 °F 3.2 °F 85% 29.82 in 1.2 mi ESE 13.8 mph - 0.00 in Snow Light Snow
9:53 PM 8.1 °F -5.3 °F 3.0 °F 80% 29.84 in 1.2 mi SE 9.2 mph - 0.00 in Snow Light Snow
10:32 PM 8.6 °F -2.6 °F 3.2 °F 79% 29.86 in 2.0 mi ESE 6.9 mph - 0.00 in Snow Light Snow
10:40 PM 8.6 °F -3.7 °F 3.2 °F 79% 29.86 in 1.8 mi ESE 8.1 mph - 0.00 in Snow Light Snow
10:53 PM 9.0 °F -3.2 °F 5.0 °F 84% 29.88 in 4.0 mi ESE 8.1 mph - 0.00 in Snow Light Snow
11:19 PM 19.4 °F 5.5 °F 15.8 °F 86% 29.88 in 4.0 mi WSW 15.0 mph - 0.00 in Snow Light Snow
11:27 PM 19.4 °F 6.0 °F 15.8 °F 86% 29.89 in 5.0 mi WSW 13.8 mph - 0.00 in Snow Light Snow
11:53 PM 19.0 °F 6.8 °F 14.0 °F 81% 29.91 in 3.0 mi WSW 11.5 mph - 0.00 in Snow Light Snow